{"data":{"norad_id":68106,"epoch":"2026-05-24T20:33:37.002528Z","epoch_age_seconds":87535,"freshness":"FRESH","line1":"1 68106U 26044F   26144.85667827  .00018788  00000+0  58252-3 0  9999","line2":"2 68106  97.2837 105.4548 0001761  97.0570 263.0873 15.33461330 13258","mean_motion":15.3346133,"eccentricity":0.0001761,"inclination_deg":97.2837,"raan_deg":105.4548,"arg_perigee_deg":97.057,"mean_anomaly_deg":263.0873,"bstar":0.00058252,"rev_number":1325,"period_min":93.905204639233,"perigee_km":464.28942479573,"apogee_km":466.69975184114,"semimajor_km":6843.6315883184,"source":"CELESTRAK","updated_at":"2026-05-25T13:38:21.841725Z"}}